• In Belgium
  • List of Countries
  • For 7 days
  • Water Temperature
  • Satellite Maps
  • Weather Map
  • Weather Widgets
  • user-avatar
    Login

    Hourly Weather Altınekin

    Today, 18 September, Tuesday

    Time Temperature Precipitation Wind Pressure Humidity
    00:00 +17°C° 0 mm 5 mps 678 mmHg 60%
    01:00 +17°C° 0 mm 5 mps 678 mmHg 63%
    02:00 +16°C° 0 mm 6 mps 678 mmHg 66%
    03:00 +15°C° 0 mm 5 mps 678 mmHg 69%
    04:00 +15°C° 0 mm 5 mps 677 mmHg 71%
    05:00 +14°C° 0 mm 4 mps 677 mmHg 74%
    06:00 +15°C° 0 mm 5 mps 678 mmHg 72%
    07:00 +16°C° 0 mm 5 mps 678 mmHg 69%
    08:00 +17°C° 0 mm 5 mps 678 mmHg 65%
    09:00 +19°C° 0 mm 5 mps 678 mmHg 58%
    10:00 +20°C° 0 mm 5 mps 678 mmHg 52%
    11:00 +22°C° 0 mm 5 mps 678 mmHg 45%
    12:00 +23°C° 0 mm 5 mps 678 mmHg 41%
    13:00 +25°C° 0 mm 5 mps 678 mmHg 37%
    14:00 +26°C° 0 mm 5 mps 678 mmHg 34%
    15:00 +26°C° 0 mm 5 mps 678 mmHg 34%
    16:00 +25°C° 0 mm 5 mps 678 mmHg 34%
    17:00 +24°C° 0 mm 6 mps 677 mmHg 34%
    18:00 +23°C° 0 mm 6 mps 677 mmHg 38%
    19:00 +22°C° 0 mm 6 mps 678 mmHg 41%
    20:00 +21°C° 0 mm 6 mps 678 mmHg 45%
    21:00 +20°C° 0 mm 5 mps 678 mmHg 48%
    22:00 +19°C° 0 mm 5 mps 678 mmHg 52%
    23:00 +19°C° 0 mm 5 mps 678 mmHg 55%

    Tomorrow, 19 September, Wednesday

    Time Temperature Precipitation Wind Pressure Humidity
    00:00 +17°C° 0 mm 5 mps 678 mmHg 57%
    01:00 +17°C° 0 mm 4 mps 678 mmHg 59%
    02:00 +17°C° 0 mm 4 mps 678 mmHg 61%
    03:00 +16°C° 0 mm 3 mps 678 mmHg 62%
    04:00 +14°C° 0 mm 3 mps 678 mmHg 63%
    05:00 +14°C° 0 mm 3 mps 677 mmHg 65%
    06:00 +16°C° 0 mm 3 mps 678 mmHg 60%
    07:00 +16°C° 0 mm 3 mps 678 mmHg 56%
    08:00 +17°C° 0 mm 3 mps 678 mmHg 51%
    09:00 +19°C° 0 mm 3 mps 678 mmHg 46%
    10:00 +20°C° 0 mm 3 mps 678 mmHg 41%
    11:00 +22°C° 0 mm 3 mps 679 mmHg 35%
    12:00 +23°C° 0 mm 4 mps 678 mmHg 32%
    13:00 +25°C° 0 mm 4 mps 678 mmHg 30%
    14:00 +26°C° 0 mm 4 mps 678 mmHg 27%
    15:00 +26°C° 0 mm 4 mps 678 mmHg 27%
    16:00 +26°C° 0 mm 4 mps 678 mmHg 27%
    17:00 +26°C° 0 mm 4 mps 677 mmHg 26%
    18:00 +25°C° 0 mm 4 mps 677 mmHg 27%
    19:00 +23°C° 0 mm 4 mps 678 mmHg 29%
    20:00 +22°C° 0 mm 4 mps 678 mmHg 30%
    21:00 +21°C° 0 mm 4 mps 678 mmHg 32%
    22:00 +20°C° 0 mm 3 mps 678 mmHg 34%
    23:00 +19°C° 0 mm 3 mps 677 mmHg 36%

    Day after tomorrow, 20 September, Thursday

    Time Temperature Precipitation Wind Pressure Humidity
    00:00 +18°C° 0 mm 3 mps 677 mmHg 39%
    01:00 +18°C° 0 mm 3 mps 677 mmHg 42%
    02:00 +17°C° 0 mm 3 mps 677 mmHg 44%
    03:00 +17°C° 0 mm 3 mps 677 mmHg 47%
    04:00 +16°C° 0 mm 3 mps 676 mmHg 49%
    05:00 +16°C° 0 mm 2 mps 676 mmHg 52%
    06:00 +16°C° 0 mm 2 mps 677 mmHg 50%
    07:00 +17°C° 0 mm 2 mps 677 mmHg 48%
    08:00 +18°C° 0 mm 2 mps 677 mmHg 47%
    09:00 +20°C° 0 mm 2 mps 678 mmHg 42%
    10:00 +21°C° 0 mm 2 mps 678 mmHg 38%
    11:00 +24°C° 0 mm 2 mps 678 mmHg 33%
    12:00 +25°C° 0 mm 2 mps 677 mmHg 31%
    13:00 +26°C° 0 mm 2 mps 677 mmHg 29%
    14:00 +27°C° 0 mm 2 mps 677 mmHg 27%
    15:00 +27°C° 0 mm 2 mps 677 mmHg 27%
    16:00 +27°C° 0 mm 2 mps 677 mmHg 27%
    17:00 +27°C° 0 mm 2 mps 676 mmHg 26%
    18:00 +26°C° 0 mm 2 mps 676 mmHg 29%
    19:00 +25°C° 0 mm 3 mps 676 mmHg 31%
    20:00 +24°C° 0 mm 3 mps 677 mmHg 33%
    21:00 +22°C° 0 mm 3 mps 676 mmHg 33%
    22:00 +21°C° 0 mm 2 mps 676 mmHg 34%
    23:00 +21°C° 0 mm 2 mps 676 mmHg 35%

    21 September, Friday

    Time Temperature Precipitation Wind Pressure Humidity
    00:00 +20°C° 0 mm 2 mps 676 mmHg 35%
    01:00 +19°C° 0 mm 2 mps 676 mmHg 36%
    02:00 +19°C° 0 mm 2 mps 676 mmHg 37%
    03:00 +18°C° 0 mm 2 mps 676 mmHg 38%
    04:00 +18°C° 0 mm 2 mps 676 mmHg 39%
    05:00 +18°C° 0 mm 2 mps 676 mmHg 39%
    06:00 +19°C° 0 mm 2 mps 676 mmHg 37%
    07:00 +20°C° 0 mm 2 mps 677 mmHg 34%
    08:00 +21°C° 0 mm 2 mps 677 mmHg 32%
    09:00 +24°C° 0 mm 2 mps 677 mmHg 29%
    10:00 +25°C° 0 mm 2 mps 677 mmHg 27%
    11:00 +26°C° 0 mm 1 mps 678 mmHg 25%
    12:00 +27°C° 0 mm 1 mps 677 mmHg 24%
    13:00 +28°C° 0 mm 1 mps 677 mmHg 22%
    14:00 +29°C° 0 mm 1 mps 677 mmHg 21%
    15:00 +29°C° 0 mm 2 mps 677 mmHg 21%
    16:00 +29°C° 0 mm 2 mps 677 mmHg 20%
    17:00 +28°C° 0 mm 2 mps 677 mmHg 20%
    18:00 +27°C° 0 mm 2 mps 677 mmHg 22%
    19:00 +26°C° 0 mm 2 mps 677 mmHg 24%
    20:00 +25°C° 0 mm 2 mps 677 mmHg 26%
    21:00 +24°C° 0 mm 2 mps 677 mmHg 27%
    22:00 +23°C° 0 mm 2 mps 677 mmHg 28%
    23:00 +22°C° 0 mm 1 mps 676 mmHg 30%

    22 September, Saturday

    Time Temperature Precipitation Wind Pressure Humidity
    00:00 +22°C° 0 mm 1 mps 676 mmHg 31%
    01:00 +21°C° 0 mm 1 mps 676 mmHg 32%
    02:00 +20°C° 0 mm 1 mps 676 mmHg 33%
    03:00 +20°C° 0 mm 1 mps 676 mmHg 34%
    04:00 +19°C° 0 mm 1 mps 676 mmHg 35%
    05:00 +19°C° 0 mm 1 mps 676 mmHg 36%
    06:00 +20°C° 0 mm 1 mps 676 mmHg 33%
    07:00 +22°C° 0 mm 1 mps 677 mmHg 29%
    08:00 +24°C° 0 mm 1 mps 677 mmHg 26%
    09:00 +25°C° 0 mm 1 mps 677 mmHg 24%
    10:00 +27°C° 0 mm 1 mps 677 mmHg 22%
    11:00 +26°C° 0 mm 0 mps 677 mmHg 21%
    12:00 +28°C° 0 mm 1 mps 677 mmHg 20%
    13:00 +29°C° 0 mm 1 mps 677 mmHg 19%
    14:00 +30°C° 0 mm 1 mps 676 mmHg 18%
    15:00 +30°C° 0 mm 1 mps 676 mmHg 18%
    16:00 +30°C° 0 mm 1 mps 676 mmHg 18%
    17:00 +30°C° 0 mm 2 mps 676 mmHg 18%
    18:00 +28°C° 0 mm 2 mps 676 mmHg 20%
    19:00 +27°C° 0 mm 2 mps 676 mmHg 22%
    20:00 +25°C° 0 mm 2 mps 676 mmHg 23%
    21:00 +25°C° 0 mm 2 mps 676 mmHg 25%
    22:00 +24°C° 0 mm 1 mps 676 mmHg 26%
    23:00 +23°C° 0 mm 1 mps 676 mmHg 27%

    23 September, Sunday

    Time Temperature Precipitation Wind Pressure Humidity
    00:00 +22°C° 0 mm 1 mps 675 mmHg 28%
    01:00 +22°C° 0 mm 1 mps 675 mmHg 30%
    02:00 +21°C° 0 mm 1 mps 675 mmHg 31%
    03:00 +21°C° 0 mm 1 mps 675 mmHg 32%
    04:00 +20°C° 0 mm 1 mps 675 mmHg 33%
    05:00 +19°C° 0 mm 2 mps 675 mmHg 34%
    06:00 +20°C° 0 mm 2 mps 675 mmHg 32%
    07:00 +23°C° 0 mm 2 mps 676 mmHg 30%
    08:00 +24°C° 0 mm 2 mps 676 mmHg 28%
    09:00 +25°C° 0 mm 2 mps 676 mmHg 26%
    10:00 +26°C° 0 mm 1 mps 676 mmHg 24%
    11:00 +28°C° 0 mm 1 mps 676 mmHg 21%
    12:00 +28°C° 0 mm 1 mps 676 mmHg 21%
    13:00 +29°C° 0 mm 1 mps 675 mmHg 20%
    14:00 +30°C° 0 mm 2 mps 675 mmHg 19%
    15:00 +29°C° 0 mm 3 mps 675 mmHg 19%
    16:00 +29°C° 0 mm 3 mps 675 mmHg 20%
    17:00 +29°C° 0 mm 4 mps 675 mmHg 21%
    18:00 +27°C° 0 mm 5 mps 675 mmHg 26%
    19:00 +24°C° 0 mm 6 mps 675 mmHg 31%
    20:00 +23°C° 0 mm 7 mps 675 mmHg 35%
    21:00 +21°C° 0 mm 7 mps 675 mmHg 41%
    22:00 +20°C° 0 mm 7 mps 675 mmHg 47%
    23:00 +18°C° 0 mm 7 mps 675 mmHg 52%
    Show more